Terminal Aerodrome Forecast
Issued by NWS

Home | Current Version | Previous Version | Text Only | Print | Product List | Glossary On
Versions: 1 2 3 4 5 6 7 8 9 10 11 12 13 14 15
000
FTUS45 KPSR 260500
TAFIPL
TAF
KIPL 260520Z 2606/2706 26005KT P6SM FEW100 BKN150 BKN250
     FM261200 26005KT P6SM SCT070 BKN100 OVC150
     FM261600 28008KT P6SM -RA FEW030 SCT050 OVC070
     FM262000 35006KT P6SM -RA SCT030 OVC050
     FM270300 VRB04KT P6SM VCSH FEW025 BKN050 BKN100=

USA.gov is the U.S. government's official web portal to all federal, state and local government web resources and services.